(266848) = 2005 WW201 = 2007 GG7 = 2009 UB53

Discovered at Kitt Peak on 2009-10-22 by Spacewatch.

Orbit

Orbit type: Main Belt

Note: WebGL enabled browser required.

epoch2023-09-13.0
epoch JD2460200.5
perihelion date2019-10-15.19359
perihelion JD2458771.69359
argument of perihelion (°)99.43923
ascending node (°)13.57077
inclination (°)2.40218
eccentricity0.0259091
perihelion distance (AU)2.6523410
Tisserand w.r.t. Jupiter3.4
ΔV w.r.t. Earth (km/sec)10.2
semimajor axis (AU)2.7228887
mean anomaly (°)313.42411
mean daily motion (°/day)0.21936080
aphelion distance (AU)2.793
period (years)4.49
P-vector [x]-0.39068844
P-vector [y]0.82726436
P-vector [z]0.40372790
Q-vector [x]-0.92047043
Q-vector [y]-0.35577344
Q-vector [z]-0.16173882
absolute magnitude16.93
phase slope0.15
uncertainty0
referenceMPEC 2024-A48
observations used274
oppositions15
arc length (days)8465
first opposition used2000
last opposition used2024
residual rms (arc-secs)0.82
perturbers coarse indicatorM-v
perturbers precise indicator003Ek
first observation date used2000-10-30.0
last observation date used2024-01-03.0
computer nameMPCLINUX
JD of orbit computation2456581.757341
perihelion JD uncertainty (days)7.1052E-04
argument of perihelion uncertainty (°)1.8539E-04
ascending node uncertainty (°)1.0048E-04
inclination uncertainty (°)5.9350E-06
eccentricity uncertainty 6.7584E-08
perihelion distance uncertainty (AU)1.7794E-07
Minimum Orbit Intersection Distances (in AU)
for orbit epoch: 2460200.5, reference: E2024-A48
Mercury2.29451
Venus1.93364
Earth1.66871
Mars0.99969
Jupiter2.20859
Saturn6.40001
Uranus15.7653
Neptune27.1189

Observations

282 total observations over interval: 2000 10 30.24069 – 2024 01 03.332864
These data are available for download (format description).

Date (UT) J2000 RA J2000 Dec Magn Location Ref
2000 10 30.24069 01 37 46.38 +11 19 33.3 22.1 V 691 – Steward Observatory, Kitt Peak-Spacewatch MPS 305150
2000 10 30.26203 01 37 45.28 +11 19 28.8 21.5 V 691 – Steward Observatory, Kitt Peak-Spacewatch MPS 305150
2000 10 30.28344 01 37 44.16 +11 19 23.3 21.4 V 691 – Steward Observatory, Kitt Peak-Spacewatch MPS 305151
2002 01 11.31321 09 41 09.78 +17 17 23.0 22.0 V 291 – LPL/Spacewatch II MPS 305151
2002 01 11.32048 09 41 09.57 +17 17 24.7 21.5 V 291 – LPL/Spacewatch II MPS 305151
2002 01 11.32774 09 41 09.28 +17 17 26.0 21.5 V 291 – LPL/Spacewatch II MPS 305151
2005 11 29.25651 05 43 59.11 +26 47 58.4 20.9 V 691 – Steward Observatory, Kitt Peak-Spacewatch MPS 156662
2005 11 29.27374 05 43 58.15 +26 47 59.0 21.0 V 691 – Steward Observatory, Kitt Peak-Spacewatch MPS 156662
2005 11 29.29105 05 43 57.21 +26 48 00.0 20.7 V 691 – Steward Observatory, Kitt Peak-Spacewatch MPS 156662
2005 12 07.22369 05 36 23.39 +26 50 33.5 20.9 V 691 – Steward Observatory, Kitt Peak-Spacewatch MPS 156662
2005 12 07.24108 05 36 22.32 +26 50 33.9 20.7 V 691 – Steward Observatory, Kitt Peak-Spacewatch MPS 156662
2005 12 07.25854 05 36 21.23 +26 50 34.1 20.6 V 691 – Steward Observatory, Kitt Peak-Spacewatch MPS 156662
2007 04 07.29330 12 35 36.56 -03 43 59.4 20.6 V G96 – Mt. Lemmon Survey MPS 207011
2007 04 07.30281 12 35 36.13 -03 43 56.8 20.4 V G96 – Mt. Lemmon Survey MPS 207011
2007 04 07.31240 12 35 35.66 -03 43 54.1 20.2 V G96 – Mt. Lemmon Survey MPS 207011
2007 04 07.32182 12 35 35.12 -03 43 51.4 19.8 V G96 – Mt. Lemmon Survey MPS 207011
2007 04 14.27652 12 29 57.33 -03 14 25.1 20.6 V G96 – Mt. Lemmon Survey MPS 207011
2007 04 14.28215 12 29 57.01 -03 14 23.9 20.6 V G96 – Mt. Lemmon Survey MPS 207011
2007 04 14.28772 12 29 56.76 -03 14 22.3 20.2 V G96 – Mt. Lemmon Survey MPS 207011
2007 04 14.29328 12 29 56.50 -03 14 21.1 20.4 V G96 – Mt. Lemmon Survey MPS 207011
2009 09 14.46586 02 17 31.55 +14 15 44.6 21.1 V 691 – Steward Observatory, Kitt Peak-Spacewatch MPS 305151
2009 09 14.48355 02 17 31.20 +14 15 43.6 20.9 V 691 – Steward Observatory, Kitt Peak-Spacewatch MPS 305151
2009 09 14.50123 02 17 30.89 +14 15 43.9 20.8 V 691 – Steward Observatory, Kitt Peak-Spacewatch MPS 305151
2009 09 22.43592 02 14 35.67 +14 08 44.7 21.4 V 691 – Steward Observatory, Kitt Peak-Spacewatch MPS 305151
2009 09 22.45359 02 14 35.14 +14 08 43.6 21.3 V 691 – Steward Observatory, Kitt Peak-Spacewatch MPS 305151
2009 09 22.47129 02 14 34.61 +14 08 41.7 21.0 V 691 – Steward Observatory, Kitt Peak-Spacewatch MPS 305151
2009 10 22.24670 01 52 34.28 +12 41 55.8 20.2 V G96 – Mt. Lemmon Survey MPS 305151
2009 10 22.25042 01 52 34.06 +12 41 55.0 20.3 V G96 – Mt. Lemmon Survey MPS 305151
2009 10 22.25419 01 52 33.85 +12 41 54.1 20.6 V G96 – Mt. Lemmon Survey MPS 305151
2009 10 22.25801 01 52 33.67 +12 41 53.1 20.3 V G96 – Mt. Lemmon Survey MPS 305151
2009 10 22.36333 01 52 27.80 +12 41 27.9 20.4 V G96 – Mt. Lemmon Survey MPS 300910
2009 10 22.37180 01 52 27.30 +12 41 25.9 20.4 V 291 – LPL/Spacewatch II MPS 300910
2009 10 22.37227 01 52 27.30 +12 41 25.8 20.0 V G96 – Mt. Lemmon Survey MPS 300910
2009 10 22.37567 01 52 27.10 +12 41 24.7 20.6 V 291 – LPL/Spacewatch II MPS 300910
2009 10 22.38233 01 52 26.72 +12 41 23.1 20.2 V G96 – Mt. Lemmon Survey MPS 300910
2009 10 22.38786 01 52 26.42 +12 41 22.0 20.5 V 291 – LPL/Spacewatch II MPS 300910
2009 10 22.39122 01 52 26.25 +12 41 21.1 20.4 V G96 – Mt. Lemmon Survey MPS 300910
2009 10 22.40269 01 52 25.64 +12 41 18.3 20.3 V G96 – Mt. Lemmon Survey MPS 300910
2009 10 22.41241 01 52 25.06 +12 41 15.9 20.2 V G96 – Mt. Lemmon Survey MPS 300910
2009 10 22.42219 01 52 24.56 +12 41 13.3 20.4 V G96 – Mt. Lemmon Survey MPS 300910
2009 10 22.43190 01 52 23.91 +12 41 10.5 19.8 V G96 – Mt. Lemmon Survey MPS 300910
2009 10 24.14518 01 50 52.33 +12 34 17.2   691 – Steward Observatory, Kitt Peak-Spacewatch MPS 300910
2009 10 24.16235 01 50 51.38 +12 34 13.3   691 – Steward Observatory, Kitt Peak-Spacewatch MPS 300910
2009 10 24.17952 01 50 50.44 +12 34 09.1   691 – Steward Observatory, Kitt Peak-Spacewatch MPS 300910
2009 11 17.08808 01 32 04.35 +11 04 52.6 21.0 V 691 – Steward Observatory, Kitt Peak-Spacewatch MPS 303446
2009 11 17.11190 01 32 03.47 +11 04 48.6 20.7 V 691 – Steward Observatory, Kitt Peak-Spacewatch MPS 303446
2009 11 17.13573 01 32 02.58 +11 04 44.3 20.7 V 691 – Steward Observatory, Kitt Peak-Spacewatch MPS 303446
2009 11 20.08116 01 30 23.96 +10 56 37.2 20.9 V 691 – Steward Observatory, Kitt Peak-Spacewatch MPS 305151
2009 11 20.10503 01 30 23.19 +10 56 32.9 20.6 V 691 – Steward Observatory, Kitt Peak-Spacewatch MPS 305151
2009 11 20.12888 01 30 22.40 +10 56 29.7 21.2 V 691 – Steward Observatory, Kitt Peak-Spacewatch MPS 305151
2009 11 22.07561 01 29 23.96 +10 51 41.3 21.2 V 691 – Steward Observatory, Kitt Peak-Spacewatch MPS 305151
2009 11 22.08618 01 29 23.66 +10 51 39.1 21.2 V 691 – Steward Observatory, Kitt Peak-Spacewatch MPS 305151
2009 11 22.09675 01 29 23.36 +10 51 38.1 21.0 V 691 – Steward Observatory, Kitt Peak-Spacewatch MPS 305151
2011 01 16.41405 09 44 33.79 +16 58 30.1 21.2 V G96 – Mt. Lemmon Survey MPS 367182
2011 01 16.42152 09 44 33.46 +16 58 31.5 20.3 V G96 – Mt. Lemmon Survey MPS 367182
2011 01 16.42902 09 44 33.25 +16 58 32.6 20.2 V G96 – Mt. Lemmon Survey MPS 367182
2011 01 16.43653 09 44 32.92 +16 58 34.9 19.8 V G96 – Mt. Lemmon Survey MPS 367182
2011 01 30.53388 09 33 29.453 +17 53 19.13 20.8 w F51 – Pan-STARRS 1, Haleakala MPS 379972
2011 01 30.56644 09 33 27.646 +17 53 26.96 20.7 w F51 – Pan-STARRS 1, Haleakala MPS 379972
2011 01 30.58157 09 33 26.812 +17 53 30.61 20.7 w F51 – Pan-STARRS 1, Haleakala MPS 379972
2011 02 04.31248 09 29 07.65 +18 12 36.4 19.9 V 703 – Catalina Sky Survey MPS 368599
2011 02 04.32077 09 29 07.08 +18 12 37.9 20.2 V 703 – Catalina Sky Survey MPS 368599
2011 02 04.32910 09 29 06.64 +18 12 38.9 20.6 V 703 – Catalina Sky Survey MPS 368599
2011 02 04.33746 09 29 06.21 +18 12 42.1 20.8 V 703 – Catalina Sky Survey MPS 368599
2011 02 08.30207 09 25 23.12 +18 28 10.1 20.2 V G96 – Mt. Lemmon Survey MPS 369620
2011 02 08.31141 09 25 22.62 +18 28 12.2 20.1 V G96 – Mt. Lemmon Survey MPS 369620
2011 02 08.32073 09 25 22.04 +18 28 14.4 20.3 V G96 – Mt. Lemmon Survey MPS 369620
2011 02 08.33005 09 25 21.50 +18 28 16.6 20.3 V G96 – Mt. Lemmon Survey MPS 369620
2011 03 05.11175 09 04 47.80 +19 35 55.2 20.8 V 691 – Steward Observatory, Kitt Peak-Spacewatch MPS 374767
2011 03 05.13838 09 04 46.77 +19 35 57.7 20.7 V 691 – Steward Observatory, Kitt Peak-Spacewatch MPS 374767
2011 03 05.15177 09 04 46.30 +19 35 58.6 20.8 V 691 – Steward Observatory, Kitt Peak-Spacewatch MPS 374767
2013 08 13.33110 23 08 18.26 -07 56 59.1 21.1 V 691 – Steward Observatory, Kitt Peak-Spacewatch MPS 474270
2013 08 13.34876 23 08 17.53 -07 57 02.9 21.0 V 691 – Steward Observatory, Kitt Peak-Spacewatch MPS 474270
2013 08 13.36639 23 08 16.83 -07 57 07.0 21.1 V 691 – Steward Observatory, Kitt Peak-Spacewatch MPS 474270
2013 08 14.51818 23 07 31.885 -08 01 27.21 20.8 w F51 – Pan-STARRS 1, Haleakala MPS 474270
2013 08 14.53223 23 07 31.316 -08 01 30.55 20.9 w F51 – Pan-STARRS 1, Haleakala MPS 474270
2013 08 14.54646 23 07 30.727 -08 01 33.78 20.9 w F51 – Pan-STARRS 1, Haleakala MPS 474270
2013 09 01.42313 22 53 39.929 -09 17 59.27 20.4 w F51 – Pan-STARRS 1, Haleakala MPS 475991
2013 09 01.43733 22 53 39.183 -09 18 03.09 20.6 w F51 – Pan-STARRS 1, Haleakala MPS 475991
2013 09 01.45079 22 53 38.471 -09 18 06.68 20.5 w F51 – Pan-STARRS 1, Haleakala MPS 475991
2013 09 01.46425 22 53 37.764 -09 18 10.27 20.6 w F51 – Pan-STARRS 1, Haleakala MPS 475991
2013 09 06.31646 22 49 30.42 -09 39 27.1 19.8 V G96 – Mt. Lemmon Survey MPS 477519
2013 09 06.32191 22 49 30.10 -09 39 29.6 20.5 V G96 – Mt. Lemmon Survey MPS 477519
2013 09 06.32733 22 49 29.81 -09 39 30.7 19.9 V G96 – Mt. Lemmon Survey MPS 477519
2013 09 06.33279 22 49 29.52 -09 39 32.3 20.7 V G96 – Mt. Lemmon Survey MPS 477519
2013 10 06.31516 22 28 57.674 -11 09 29.69 21.2 w F51 – Pan-STARRS 1, Haleakala MPS 482047
2013 10 06.32941 22 28 57.292 -11 09 30.84 21.2 w F51 – Pan-STARRS 1, Haleakala MPS 482047
